EW7230 Weather Reports


time (UTC)temp
F
wind
direction
speed
knots
gust
knots
rain 1hr
in
rain 24hr
in
rain mn
in
humidity
%
barometer
mb
20260503021600 45 331 0.0 0.0 0.00 0.00 0.00 80 1006.1
20260503021100 45 278 0.0 0.0 0.00 0.00 0.00 80 1006.1
20260503020600 45 278 0.0 0.0 0.00 0.00 0.00 80 1006.1
20260503020059 45 278 0.0 0.0 0.00 0.00 0.00 80 1006.1
20260503015558 45 278 0.0 0.0 0.00 0.00 0.00 79 1006.1
20260503015058 45 278 0.0 0.0 0.00 0.00 0.00 79 1006.1
20260503014603 46 278 0.0 0.0 0.00 0.00 0.00 78 1006.0
20260503014101 46 278 0.0 0.0 0.00 0.00 0.00 78 1006.0
20260503013557 46 278 0.0 0.0 0.00 0.00 0.00 77 1006.0
20260503013057 46 278 0.0 0.0 0.00 0.00 0.00 77 1006.1
20260503012559 47 278 0.0 0.0 0.00 0.00 0.00 76 1006.0
20260503012057 47 275 0.0 0.0 0.00 0.00 0.00 76 1006.0
20260503011557 47 355 0.0 0.0 0.00 0.00 0.00 76 1006.0
20260503011057 47 344 0.0 0.0 0.00 0.00 0.00 77 1006.0
20260503010557 46 29 0.0 0.0 0.00 0.00 0.00 78 1006.1
20260503010055 46 329 0.0 0.0 0.00 0.00 0.00 79 1006.1
20260503005556 46 285 0.0 0.0 0.00 0.00 0.00 79 1006.2
20260503005055 46 275 0.0 0.0 0.00 0.00 0.00 78 1006.2
20260503004557 47 333 0.0 0.0 0.00 0.00 0.00 77 1006.1
20260503004054 47 333 0.0 1.7 0.00 0.00 0.00 76 1006.1
20260503003553 47 242 0.0 2.6 0.00 0.00 0.00 77 1006.1
20260503003055 47 345 0.0 2.6 0.00 0.00 0.00 76 1006.1
20260503002553 47 325 0.0 4.3 0.00 0.00 0.00 77 1006.1
20260503002053 47 355 0.0 4.3 0.00 0.00 0.00 76 1006.1
20260503001552 47 334 0.0 3.5 0.00 0.00 0.00 77 1006.1
20260503001052 47 333 0.0 0.0 0.00 0.00 0.00 77 1006.0
20260503000551 47 348 0.0 0.0 0.00 0.00 0.00 78 1005.9
20260503000050 47 355 0.0 0.0 0.00 0.00 0.00 78 1005.9
20260502235553 47 332 0.0 0.0 0.00 0.00 0.00 79 1006.1
20260502235049 46 342 0.0 0.0 0.00 0.00 0.00 79 1006.2
20260502234554 46 317 0.0 0.0 0.00 0.00 0.00 79 1006.1
20260502234049 46 317 0.0 0.0 0.00 0.00 0.00 79 1006.2
20260502233548 46 317 0.0 0.0 0.00 0.00 0.00 78 1006.2
20260502233048 47 321 0.0 0.0 0.00 0.00 0.00 78 1006.3
20260502232548 47 316 0.0 0.0 0.00 0.00 0.00 78 1006.1
20260502232048 46 340 0.0 0.0 0.00 0.00 0.00 79 1006.2
20260502231644 46 335 0.0 0.0 0.00 0.00 0.00 80 1006.2
20260502231043 46 321 0.0 0.0 0.00 0.00 0.00 80 1006.3
20260502230541 45 342 0.0 0.0 0.00 0.00 0.00 80 1006.3
20260502230042 45 360 0.0 0.0 0.00 0.00 0.00 81 1006.4
20260502225541 45 37 0.0 0.0 0.00 0.00 0.00 81 1006.5
20260502225041 45 39 0.0 0.0 0.00 0.00 0.00 81 1006.5
20260502224545 45 40 0.0 0.0 0.00 0.00 0.00 81 1006.4
20260502224041 45 40 0.0 0.0 0.00 0.00 0.00 82 1006.4
20260502223540 44 40 0.0 0.0 0.00 0.00 0.00 82 1006.4
20260502223043 44 40 0.0 0.0 0.00 0.00 0.00 82 1006.5
20260502222539 44 40 0.0 0.0 0.00 0.00 0.00 82 1006.4
20260502222039 44 40 0.0 0.0 0.00 0.00 0.00 82 1006.4
20260502221538 44 40 0.0 0.0 0.00 0.00 0.00 81 1006.5
20260502221036 44 40 0.0 0.0 0.00 0.00 0.00 80 1006.3
20260502220535 45 40 0.0 0.0 0.00 0.00 0.00 80 1006.3
20260502220035 45 40 0.0 0.0 0.00 0.00 0.00 80 1006.3
20260502215535 45 40 0.0 0.0 0.00 0.00 0.00 80 1006.3
20260502215035 45 40 0.0 0.0 0.00 0.00 0.00 80 1006.3
20260502214544 46 40 0.0 0.0 0.00 0.00 0.00 80 1006.4
20260502214035 46 40 0.0 0.0 0.00 0.00 0.00 79 1006.3
20260502213533 46 40 0.0 0.0 0.00 0.00 0.00 79 1006.3
20260502213032 46 40 0.0 0.0 0.00 0.00 0.00 79 1006.2
20260502212533 46 40 0.0 0.0 0.00 0.00 0.00 79 1006.1
20260502212032 46 40 0.0 0.0 0.00 0.00 0.00 79 1006.2
20260502211534 46 40 0.0 0.0 0.00 0.00 0.00 79 1006.2
20260502211032 46 40 0.0 0.0 0.00 0.00 0.00 78 1006.2
20260502210531 47 40 0.0 0.0 0.00 0.00 0.00 78 1006.1
20260502210036 47 40 0.0 0.0 0.00 0.00 0.00 77 1006.0
20260502205532 47 40 0.0 0.0 0.00 0.00 0.00 77 1005.9
20260502205031 47 40 0.0 0.0 0.00 0.00 0.00 77 1005.9
20260502204530 47 40 0.0 0.0 0.00 0.00 0.00 76 1006.0
20260502204030 47 40 0.0 0.0 0.00 0.00 0.00 76 1006.0
20260502203533 48 40 0.0 0.0 0.00 0.00 0.00 75 1006.0
20260502203029 48 40 0.0 0.0 0.00 0.00 0.00 74 1005.9
20260502202528 48 40 0.0 0.0 0.00 0.00 0.00 74 1005.9
20260502202028 48 40 0.0 0.0 0.00 0.00 0.00 74 1005.9
20260502201528 48 40 0.0 0.0 0.00 0.00 0.00 73 1005.9
20260502201027 49 40 0.0 0.0 0.00 0.00 0.00 73 1005.9
20260502200530 49 40 0.0 0.0 0.00 0.00 0.00 73 1005.9
20260502200027 49 40 0.0 0.0 0.00 0.00 0.00 72 1005.9
20260502195526 49 40 0.0 0.0 0.00 0.00 0.00 73 1005.9
20260502195026 49 40 0.0 0.0 0.00 0.00 0.00 72 1005.9
20260502194531 49 40 0.0 0.0 0.00 0.00 0.00 71 1006.0
20260502194026 50 32 0.0 0.0 0.00 0.00 0.00 71 1006.0
20260502193525 50 21 0.0 0.0 0.00 0.00 0.00 69 1006.0
20260502193025 51 360 0.0 0.0 0.00 0.00 0.00 68 1005.9
20260502192527 51 340 0.0 0.0 0.00 0.00 0.00 67 1005.9
20260502192026 52 340 0.0 0.0 0.00 0.00 0.00 66 1006.1
20260502191529 52 340 0.0 0.0 0.00 0.00 0.00 65 1006.0
20260502191028 52 340 0.0 0.0 0.00 0.00 0.00 64 1006.0
20260502190525 53 340 0.0 0.0 0.00 0.00 0.00 63 1006.0
20260502190030 53 340 0.0 0.0 0.00 0.00 0.00 62 1005.9
20260502185524 54 340 0.0 0.0 0.00 0.00 0.00 62 1005.8
20260502185024 54 340 0.0 0.0 0.00 0.00 0.00 60 1005.7
20260502184524 54 340 0.0 0.0 0.00 0.00 0.00 59 1005.7
20260502184024 54 340 0.0 0.0 0.00 0.00 0.00 58 1005.7
20260502183523 54 340 0.0 0.0 0.00 0.00 0.00 57 1005.6
20260502183023 54 340 0.0 0.0 0.00 0.00 0.00 60 1005.6
20260502182522 55 340 0.0 0.0 0.00 0.00 0.00 59 1005.6
20260502182021 55 340 0.0 0.0 0.00 0.00 0.00 58 1005.7
20260502181529 55 340 0.0 0.0 0.00 0.00 0.00 57 1005.7
20260502181020 55 340 0.0 0.0 0.00 0.00 0.00 56 1005.7
20260502180522 55 340 0.0 0.0 0.00 0.00 0.00 54 1005.8
20260502170517 56 5 0.0 0.0 0.00 0.00 0.00 48 1006.0
20260502164013 56 332 0.0 0.0 0.00 0.00 0.00 47 1006.2
20260502163512 56 350 0.0 0.0 0.00 0.00 0.00 48 1006.3
20260502163019 56 331 0.0 0.0 0.00 0.00 0.00 48 1006.4
20260502162512 56 331 0.0 0.0 0.00 0.00 0.00 50 1006.3
20260502162011 56 331 0.0 0.0 0.00 0.00 0.00 48 1006.4
20260502161510 56 331 0.0 0.0 0.00 0.00 0.00 48 1006.5
20260502161009 56 331 0.0 0.0 0.00 0.00 0.00 47 1006.5
20260502160509 56 326 0.0 0.0 0.00 0.00 0.00 46 1006.5
20260502152005 56 360 0.0 0.0 0.00 0.00 0.00 44 1006.9
20260502151511 57 337 0.0 0.0 0.00 0.00 0.00 41 1007.0
20260502151005 57 333 0.0 0.9 0.00 0.00 0.00 42 1007.1
20260502150505 57 43 0.0 0.9 0.00 0.00 0.00 41 1007.1
20260502130558 62 331 0.0 0.0 0.00 0.00 0.00 35 1007.1
20260502123556 63 265 0.0 0.0 0.00 0.00 0.00 35 1007.3
20260502123102 63 330 0.0 0.0 0.00 0.00 0.00 34 1007.3
20260502122551 63 326 0.0 0.0 0.00 0.00 0.00 36 1007.5
20260502122050 62 309 0.0 0.0 0.00 0.00 0.00 38 1007.5
20260502121550 61 340 0.0 0.0 0.00 0.00 0.00 36 1007.5
20260502121050 61 331 0.0 0.0 0.00 0.00 0.00 36 1007.6
20260502120548 61 335 0.0 4.3 0.00 0.00 0.00 38 1007.6
20260502115547 61 324 0.0 0.0 0.00 0.00 0.00 38 1007.7
20260502115046 61 257 0.0 0.0 0.00 0.00 0.00 36 1007.7
20260502114556 61 328 0.0 0.0 0.00 0.00 0.00 35 1007.7
20260502114050 61 274 0.0 0.0 0.00 0.00 0.00 39 1007.8
20260502113550 61 248 0.0 0.9 0.00 0.00 0.00 39 1007.9
20260502113052 61 320 0.0 0.9 0.00 0.00 0.00 39 1007.9
20260502112547 61 355 0.0 0.9 0.00 0.00 0.00 41 1007.9
20260502112047 61 350 0.0 0.0 0.00 0.00 0.00 40 1007.9
20260502111559 61 338 0.0 0.0 0.00 0.00 0.00 41 1007.9
20260502111052 61 335 0.0 0.0 0.00 0.00 0.00 41 1008.0
20260502110552 61 263 0.0 0.0 0.00 0.00 0.00 42 1008.2
20260502110053 61 15 0.0 0.0 0.00 0.00 0.00 42 1008.1
20260502105550 61 15 0.0 0.0 0.00 0.00 0.00 43 1008.1
20260502105049 61 15 0.0 0.0 0.00 0.00 0.00 42 1008.1
20260502104551 60 15 0.0 0.0 0.00 0.00 0.00 43 1008.2
20260502104050 60 142 0.0 0.0 0.00 0.00 0.00 46 1008.1
20260502103549 60 142 0.0 0.0 0.00 0.00 0.00 48 1008.2
20260502103102 59 142 0.0 0.0 0.00 0.00 0.00 49 1008.1
20260502102550 59 142 0.0 0.0 0.00 0.00 0.00 53 1008.3
20260502102050 58 142 0.0 0.0 0.00 0.00 0.00 53 1008.3
20260502101600 58 142 0.0 0.0 0.00 0.00 0.00 55 1008.3
20260502101050 59 142 0.0 0.0 0.00 0.00 0.00 50 1008.4
20260502100549 59 142 0.0 0.0 0.00 0.00 0.00 49 1008.5
20260502100135 59 142 0.0 0.0 0.00 0.00 0.00 45 1008.5
20260502091055 59 142 0.0 0.0 0.00 0.00 0.00 47 1008.8
20260502090557 59 142 0.0 0.0 0.00 0.00 0.00 46 1008.7
20260502090119 59 141 0.0 0.0 0.00 0.00 0.00 46 1008.6
20260502071041 50 115 0.0 0.0 0.00 0.00 0.00 63 1010.1
20260502070540 50 115 0.0 0.0 0.00 0.00 0.00 64 1010.1
20260502070048 49 71 0.0 0.0 0.00 0.00 0.00 68 1010.3
20260502065539 48 71 0.0 0.0 0.00 0.00 0.00 69 1010.3
20260502065038 47 71 0.0 0.0 0.00 0.00 0.00 70 1010.4
20260502064543 47 71 0.0 0.0 0.00 0.00 0.00 70 1010.4
20260502064042 46 71 0.0 0.0 0.00 0.00 0.00 69 1010.5
20260502063543 45 71 0.0 0.0 0.00 0.00 0.00 72 1010.6
20260502063044 45 69 0.0 0.0 0.00 0.00 0.00 75 1010.6
20260502062542 44 69 0.0 0.0 0.00 0.00 0.00 78 1010.7
20260502062042 43 69 0.0 0.0 0.00 0.00 0.00 78 1010.8
20260502061546 42 69 0.0 0.0 0.00 0.00 0.00 81 1010.9
20260502061041 40 69 0.0 0.0 0.00 0.00 0.00 82 1010.9
20260502060540 39 69 0.0 0.0 0.00 0.00 0.00 81 1010.9
20260502060044 39 69 0.0 0.0 0.00 0.00 0.00 81 1011.0
20260502055544 38 69 0.0 0.0 0.00 0.00 0.00 82 1011.0
20260502055043 38 69 0.0 0.0 0.00 0.00 0.00 82 1011.0
20260502054545 38 69 0.0 0.0 0.00 0.00 0.00 81 1011.0
20260502054044 38 69 0.0 0.0 0.00 0.00 0.00 81 1011.0
20260502053543 38 69 0.0 0.0 0.00 0.00 0.00 81 1011.0
20260502053043 37 69 0.0 0.0 0.00 0.00 0.00 82 1011.1
20260502052543 37 69 0.0 0.0 0.00 0.00 0.00 82 1011.1
20260502052042 37 69 0.0 0.0 0.00 0.00 0.00 82 1011.1
20260502051547 37 69 0.0 0.0 0.00 0.00 0.00 82 1011.1
20260502051047 37 69 0.0 0.0 0.00 0.00 0.00 82 1011.1
20260502050545 37 69 0.0 0.0 0.00 0.00 0.00 82 1011.2
20260502050043 37 69 0.0 0.0 0.00 0.00 0.00 81 1011.1
20260502045546 37 69 0.0 0.0 0.00 0.00 0.00 82 1011.2
20260502045043 37 69 0.0 0.0 0.00 0.00 0.00 81 1011.2
20260502044548 37 69 0.0 0.0 0.00 0.00 0.00 81 1011.2
20260502044047 37 69 0.0 0.0 0.00 0.00 0.00 81 1011.2
20260502043547 37 69 0.0 0.0 0.00 0.00 0.00 80 1011.3
20260502043104 38 69 0.0 0.0 0.00 0.00 0.00 80 1011.2
20260502042700 38 69 0.0 0.0 0.00 0.00 0.00 80 1011.3
20260502042044 38 69 0.0 0.0 0.00 0.00 0.00 80 1011.4
20260502041550 38 69 0.0 0.0 0.00 0.00 0.00 81 1011.4
20260502041042 37 69 0.0 0.0 0.00 0.00 0.00 81 1011.4
20260502040544 37 69 0.0 0.0 0.00 0.00 0.00 81 1011.4
20260502040142 37 69 0.0 0.0 0.00 0.00 0.00 81 1011.4
20260502035552 38 69 0.0 0.0 0.00 0.00 0.00 80 1011.4
20260502035052 38 69 0.0 0.0 0.00 0.00 0.00 80 1011.6
20260502034551 38 69 0.0 0.0 0.00 0.00 0.00 79 1011.6
20260502034050 38 69 0.0 0.0 0.00 0.00 0.00 79 1011.5
20260502033549 38 69 0.0 0.0 0.00 0.00 0.00 78 1011.6
20260502033052 39 69 0.0 0.0 0.00 0.00 0.00 78 1011.8
20260502032551 39 69 0.0 0.0 0.00 0.00 0.00 77 1011.8
20260502032051 39 69 0.0 0.0 0.00 0.00 0.00 77 1011.8
20260502031555 39 69 0.0 0.0 0.00 0.00 0.00 77 1011.9
20260502031054 39 69 0.0 0.0 0.00 0.00 0.00 76 1011.9
20260502030553 40 69 0.0 0.0 0.00 0.00 0.00 75 1012.0
20260502030057 40 69 0.0 0.0 0.00 0.00 0.00 74 1012.0
20260502025551 40 69 0.0 0.0 0.00 0.00 0.00 75 1012.0
20260502025050 40 69 0.0 0.0 0.00 0.00 0.00 73 1012.1
20260502024526 41 69 0.0 0.0 0.00 0.00 0.00 73 1012.0
20260502024029 41 69 0.0 0.0 0.00 0.00 0.00 71 1012.1
20260502023525 41 69 0.0 0.0 0.00 0.00 0.00 72 1012.1
20260502023057 41 69 0.0 0.0 0.00 0.00 0.00 73 1012.2
20260502022552 41 69 0.0 0.0 0.00 0.00 0.00 73 1012.1
20260502022051 41 69 0.0 0.0 0.00 0.00 0.00 71 1012.1